When you browse on this site, cookies collect data to enhance your experience and personalize the content and advertising you see.
Visit our Privacy Policy to learn more. By continuing to use the site, you agree to this use of cookies and data.
  • In United Kingdom
  • List of Countries
  • For 7 days
  • Water Temperature
  • Weather Map
  • Weather Widgets
  • user-avatar
    Login

    Hourly Weather Abernethy

    Today, 25 February, Tuesday

    Time Temperature Precipitation Wind Pressure Humidity
    00:00 -2°C° 0 mm 3 mps 732 mmHg 92%
    01:00 -2°C° 0.1 mm 2 mps 732 mmHg 92%
    02:00 -1°C° 0.1 mm 2 mps 731 mmHg 92%
    03:00 -1°C° 0.1 mm 2 mps 731 mmHg 92%
    04:00 -1°C° 0 mm 2 mps 731 mmHg 93%
    05:00 -1°C° 0 mm 2 mps 730 mmHg 93%
    06:00 -1°C° 0 mm 2 mps 730 mmHg 93%
    07:00 -1°C° 0 mm 2 mps 730 mmHg 91%
    08:00 +1°C° 0 mm 2 mps 729 mmHg 90%
    09:00 +1°C° 0 mm 2 mps 729 mmHg 88%
    10:00 +1°C° 0 mm 3 mps 729 mmHg 84%
    11:00 +2°C° 0 mm 3 mps 729 mmHg 79%
    12:00 +3°C° 0 mm 3 mps 728 mmHg 75%
    13:00 +3°C° 0.1 mm 3 mps 728 mmHg 73%
    14:00 +3°C° 0.1 mm 3 mps 728 mmHg 71%
    15:00 +4°C° 0.1 mm 4 mps 727 mmHg 69%
    16:00 +2°C° 0 mm 3 mps 727 mmHg 74%
    17:00 +1°C° 0 mm 3 mps 727 mmHg 80%
    18:00 +1°C° 0 mm 2 mps 727 mmHg 85%
    19:00 +1°C° 0 mm 2 mps 727 mmHg 85%
    20:00 -1°C° 0 mm 2 mps 727 mmHg 86%
    21:00 -1°C° 0 mm 2 mps 727 mmHg 87%
    22:00 -1°C° 0 mm 2 mps 727 mmHg 86%
    23:00 -2°C° 0 mm 2 mps 728 mmHg 86%

    Tomorrow, 26 February, Wednesday

    Time Temperature Precipitation Wind Pressure Humidity
    00:00 -2°C° 0 mm 2 mps 728 mmHg 86%
    01:00 -2°C° 0 mm 2 mps 729 mmHg 85%
    02:00 -2°C° 0 mm 2 mps 729 mmHg 84%
    03:00 -2°C° 0 mm 2 mps 729 mmHg 84%
    04:00 -2°C° 0 mm 3 mps 730 mmHg 83%
    05:00 -2°C° 0 mm 3 mps 731 mmHg 82%
    06:00 -2°C° 0 mm 3 mps 731 mmHg 81%
    07:00 -2°C° 0 mm 4 mps 732 mmHg 79%
    08:00 -1°C° 0 mm 4 mps 733 mmHg 77%
    09:00 -1°C° 0 mm 5 mps 733 mmHg 75%
    10:00 -1°C° 0 mm 6 mps 734 mmHg 69%
    11:00 +1°C° 0 mm 6 mps 734 mmHg 62%
    12:00 +2°C° 0 mm 7 mps 735 mmHg 56%
    13:00 +2°C° 0 mm 7 mps 735 mmHg 56%
    14:00 +2°C° 0 mm 7 mps 735 mmHg 56%
    15:00 +2°C° 0 mm 6 mps 735 mmHg 56%
    16:00 0°C° 0 mm 5 mps 735 mmHg 65%
    17:00 -1°C° 0 mm 4 mps 735 mmHg 74%
    18:00 -1°C° 0 mm 3 mps 734 mmHg 83%
    19:00 -1°C° 0 mm 3 mps 734 mmHg 85%
    20:00 -2°C° 0 mm 3 mps 734 mmHg 87%
    21:00 -2°C° 0 mm 3 mps 734 mmHg 88%
    22:00 -2°C° 0 mm 3 mps 733 mmHg 90%
    23:00 -2°C° 0 mm 3 mps 733 mmHg 92%

    Day after tomorrow, 27 February, Thursday

    Time Temperature Precipitation Wind Pressure Humidity
    00:00 -2°C° 0 mm 3 mps 732 mmHg 94%
    01:00 -2°C° 0 mm 2 mps 732 mmHg 94%
    02:00 -3°C° 0 mm 2 mps 731 mmHg 94%
    03:00 -3°C° 0 mm 2 mps 731 mmHg 94%
    04:00 -3°C° 0 mm 2 mps 731 mmHg 94%
    05:00 -3°C° 0 mm 2 mps 731 mmHg 94%
    06:00 -2°C° 0 mm 2 mps 730 mmHg 95%
    07:00 -2°C° 0 mm 2 mps 731 mmHg 91%
    08:00 -1°C° 0 mm 3 mps 731 mmHg 87%
    09:00 -1°C° 0 mm 3 mps 731 mmHg 83%
    10:00 0°C° 0 mm 3 mps 731 mmHg 77%
    11:00 0°C° 0 mm 4 mps 731 mmHg 71%
    12:00 +3°C° 0 mm 4 mps 731 mmHg 64%
    13:00 +2°C° 0 mm 5 mps 732 mmHg 62%
    14:00 +2°C° 0 mm 6 mps 732 mmHg 60%
    15:00 +2°C° 0 mm 7 mps 732 mmHg 58%
    16:00 0°C° 0 mm 7 mps 733 mmHg 63%
    17:00 -1°C° 0 mm 6 mps 733 mmHg 68%
    18:00 -2°C° 0 mm 6 mps 734 mmHg 73%
    19:00 -2°C° 0 mm 6 mps 735 mmHg 75%
    20:00 -1°C° 0 mm 5 mps 735 mmHg 76%
    21:00 -2°C° 0 mm 5 mps 736 mmHg 78%
    22:00 -2°C° 0 mm 5 mps 737 mmHg 80%
    23:00 -2°C° 0 mm 5 mps 738 mmHg 81%

    28 February, Friday

    Time Temperature Precipitation Wind Pressure Humidity
    00:00 -2°C° 0 mm 4 mps 738 mmHg 83%
    01:00 -3°C° 0 mm 4 mps 739 mmHg 83%
    02:00 -3°C° 0 mm 4 mps 739 mmHg 84%
    03:00 -2°C° 0 mm 3 mps 739 mmHg 84%
    04:00 -2°C° 0 mm 3 mps 739 mmHg 86%
    05:00 -2°C° 0 mm 3 mps 739 mmHg 87%
    06:00 -1°C° 0 mm 3 mps 739 mmHg 88%
    07:00 -1°C° 0 mm 3 mps 739 mmHg 86%
    08:00 -1°C° 0 mm 4 mps 739 mmHg 85%
    09:00 0°C° 0 mm 4 mps 739 mmHg 83%
    10:00 +1°C° 0 mm 5 mps 738 mmHg 79%
    11:00 +2°C° 0 mm 5 mps 738 mmHg 74%
    12:00 +3°C° 0 mm 6 mps 738 mmHg 69%
    13:00 +3°C° 0 mm 5 mps 737 mmHg 69%
    14:00 +3°C° 0 mm 5 mps 737 mmHg 70%
    15:00 +3°C° 0 mm 5 mps 736 mmHg 70%
    16:00 +3°C° 0 mm 4 mps 735 mmHg 76%
    17:00 +1°C° 0 mm 4 mps 735 mmHg 82%
    18:00 +1°C° 0 mm 3 mps 734 mmHg 87%
    19:00 0°C° 0 mm 4 mps 733 mmHg 87%
    20:00 0°C° 0 mm 4 mps 732 mmHg 86%
    21:00 0°C° 0 mm 4 mps 731 mmHg 86%
    22:00 0°C° 0.4 mm 5 mps 730 mmHg 88%
    23:00 0°C° 0.4 mm 5 mps 728 mmHg 91%

    29 February, Saturday

    Time Temperature Precipitation Wind Pressure Humidity
    00:00 -1°C° 0.4 mm 6 mps 727 mmHg 93%
    01:00 0°C° 1.3 mm 7 mps 725 mmHg 94%
    02:00 0°C° 1.3 mm 7 mps 722 mmHg 94%
    03:00 +1°C° 1.3 mm 8 mps 720 mmHg 94%
    04:00 +1°C° 1 mm 8 mps 719 mmHg 93%
    05:00 +2°C° 1 mm 8 mps 717 mmHg 92%
    06:00 +2°C° 1 mm 8 mps 715 mmHg 92%
    07:00 +4°C° 0.9 mm 8 mps 714 mmHg 92%
    08:00 +4°C° 0.9 mm 8 mps 714 mmHg 92%
    09:00 +4°C° 0.9 mm 8 mps 713 mmHg 92%
    10:00 +2°C° 0.5 mm 8 mps 714 mmHg 89%
    11:00 +2°C° 0.5 mm 9 mps 714 mmHg 85%
    12:00 +1°C° 0.5 mm 9 mps 714 mmHg 81%
    13:00 +1°C° 0 mm 9 mps 714 mmHg 79%
    14:00 +1°C° 0 mm 8 mps 715 mmHg 76%
    15:00 +2°C° 0 mm 7 mps 715 mmHg 73%
    16:00 +1°C° 0 mm 6 mps 716 mmHg 75%
    17:00 0°C° 0 mm 5 mps 716 mmHg 76%
    18:00 -1°C° 0 mm 5 mps 717 mmHg 78%
    19:00 -1°C° 0 mm 4 mps 717 mmHg 80%
    20:00 -1°C° 0 mm 4 mps 717 mmHg 83%
    21:00 -2°C° 0 mm 4 mps 717 mmHg 85%
    22:00 -1°C° 0 mm 5 mps 717 mmHg 87%
    23:00 -2°C° 0 mm 6 mps 717 mmHg 89%

    1 March, Sunday

    Time Temperature Precipitation Wind Pressure Humidity
    00:00 -2°C° 0 mm 7 mps 717 mmHg 91%
    01:00 -2°C° 0.1 mm 7 mps 717 mmHg 89%
    02:00 -1°C° 0.1 mm 7 mps 717 mmHg 86%
    03:00 -1°C° 0.1 mm 7 mps 717 mmHg 84%
    04:00 -2°C° 0 mm 7 mps 717 mmHg 82%
    05:00 -2°C° 0 mm 7 mps 717 mmHg 81%
    06:00 -2°C° 0 mm 7 mps 717 mmHg 79%
    07:00 -2°C° 0 mm 7 mps 716 mmHg 79%
    08:00 -2°C° 0 mm 7 mps 716 mmHg 79%
    09:00 -1°C° 0 mm 8 mps 716 mmHg 79%
    10:00 -1°C° 0.2 mm 7 mps 715 mmHg 83%
    11:00 -1°C° 0.2 mm 7 mps 715 mmHg 87%
    12:00 -1°C° 0.2 mm 7 mps 715 mmHg 91%
    13:00 +1°C° 0.1 mm 6 mps 714 mmHg 91%
    14:00 +1°C° 0.1 mm 5 mps 714 mmHg 91%
    15:00 +1°C° 0.1 mm 4 mps 714 mmHg 90%
    16:00 +1°C° 0.1 mm 4 mps 714 mmHg 90%
    17:00 +1°C° 0.1 mm 4 mps 714 mmHg 91%
    18:00 +1°C° 0.1 mm 4 mps 714 mmHg 91%
    19:00 +1°C° 0.1 mm 4 mps 714 mmHg 92%
    20:00 +1°C° 0.1 mm 4 mps 715 mmHg 92%
    21:00 0°C° 0.1 mm 4 mps 715 mmHg 93%
    22:00 +1°C° 0.4 mm 5 mps 715 mmHg 93%
    23:00 +1°C° 0.4 mm 5 mps 716 mmHg 94%
    Show more